This is the latest recevied weather packets stored in our database for station/object WX4LTG. If no packets are shown the sender has not sent any weather packets the latest 10 day(s).
| Time | Temp. | Humidity | Pressure | Rain* | Wind** | Luminosity | Snow |
|---|---|---|---|---|---|---|---|
| 1777592544 | 31.11° C | 13% | 1004.2 hPa | 0 mm | - | 183 W/m² | - |
| 1777592240 | 31.11° C | 13% | 1004.4 hPa | 0 mm | - | 189 W/m² | - |
| 1777591936 | 31.11° C | 13% | 1004.2 hPa | 0 mm | - | 190 W/m² | - |
| 1777591632 | 31.11° C | 13% | 1004.2 hPa | 0 mm | - | 198 W/m² | - |
| 1777591329 | 31.11° C | 13% | 1004.4 hPa | 0 mm | - | 202 W/m² | - |
| 1777591025 | 31.11° C | 14% | 1004.4 hPa | 0 mm | - | 208 W/m² | - |
| 1777590720 | 31.11° C | 14% | 1004.4 hPa | 0 mm | - | 201 W/m² | - |
| 1777590416 | 31.11° C | 14% | 1004.5 hPa | 0 mm | - | 202 W/m² | - |
| 1777590113 | 31.11° C | 13% | 1004.7 hPa | 0 mm | - | 200 W/m² | - |
| 1777589810 | 31.11° C | 13% | 1004.6 hPa | 0 mm | - | 199 W/m² | - |
| 1777589504 | 31.11° C | 13% | 1004.6 hPa | 0 mm | - | 195 W/m² | - |
| 1777589204 | 31.67° C | 14% | 1004.8 hPa | 0 mm | - | 182 W/m² | - |
| 1777588900 | 31.67° C | 14% | 1004.8 hPa | 0 mm | - | 177 W/m² | - |
| 1777588597 | 32.22° C | 14% | 1005 hPa | 0 mm | - | 170 W/m² | - |
| 1777588297 | 32.78° C | 13% | 1005 hPa | 0 mm | - | 252 W/m² | - |
| 1777587993 | 32.78° C | 13% | 1005.5 hPa | 0 mm | - | 515 W/m² | - |
| 1777587689 | 32.78° C | 13% | 1005.2 hPa | 0 mm | - | 501 W/m² | - |
| 1777587389 | 32.22° C | 13% | 1005.3 hPa | 0 mm | - | 614 W/m² | - |
| 1777587085 | 32.22° C | 13% | 1005.6 hPa | 0 mm | - | 450 W/m² | - |
| 1777586781 | 31.67° C | 13% | 1005.8 hPa | 0 mm | - | 328 W/m² | - |
| 1777586476 | 31.11° C | 14% | 1005.9 hPa | 0 mm | - | 578 W/m² | - |
| 1777586172 | 31.67° C | 13% | 1005.9 hPa | 0 mm | - | 378 W/m² | - |
| 1777585870 | 31.67° C | 13% | 1005.9 hPa | 0 mm | - | 394 W/m² | - |
| 1777585565 | 31.67° C | 13% | 1006 hPa | 0 mm | - | 621 W/m² | - |
| 1777585261 | 32.22° C | 13% | 1006.1 hPa | 0 mm | - | 475 W/m² | - |
* Rain latest hour (hover to see other rain measurements)
** Current wind speed in m/s (hover to see current wind gust speed)